Weather History for Jordan, MT

Change the Weather History Date:

Sunday, February 24, 2013

  Actual Average Record
Temperature  
Mean Temperature 33 °F 25 °F  
Max Temperature 45 °F 38 °F 67 °F (1946)
Min Temperature 20 °F 13 °F -30 °F (1993)
Degree Days  
Heating Degree Days 32 40  
Month to date heating degree days 834 1034  
Since 1 July heating degree days 5325 5964  
Cooling Degree Days 0 0  
Month to date cooling degree days 0 0  
Year to date cooling degree days 0 0  
Moisture  
Dew Point 20 °F    
Average Humidity 62    
Maximum Humidity 92    
Minimum Humidity 31    
Precipitation  
Precipitation 0.00 in 0.01 in 0.40 in (1911)
Month to date precipitation 0.07 0.20  
Year to date precipitation 0.40 0.43  
Snow  
Snow 0.00 in - - ()
Month to date snowfall 0.0  
Since 1 July snowfall 0.0  
Snow Depth 0.00 in    
Sea Level Pressure  
Sea Level Pressure 30.09 in    
Wind  
Wind Speed 10 mph (West)    
Max Wind Speed 23 mph    
Max Gust Speed 28 mph    
T = Trace of Precipitation, MM = Missing Value Source: NWS Daily Summary

Daily Weather History Graph

Daily Weather History Graph

Search for Another Location

Airport:

Trip Planner

Search our weather history database for the weather conditions in past years. The results will help you decide how hot, cold, wet, or windy it might be!

Date:

Astronomy

Feb. 24, 2013 Rise Set
Actual Time 6:56 AM MST 5:45 PM MST
Civil Twilight 6:25 AM MST 6:16 PM MST
Nautical Twilight 5:50 AM MST 6:52 PM MST
Astronomical Twilight 5:14 AM MST 7:27 PM MST
Moon 5:00 PM MST (2/24) 5:56 AM MST (2/24)
Length of Visible Light 11h 51m
Length of Day
10h 49m
Waxing Gibbous, 99% of the Moon is Illuminated
Feb 24
Waxing Gibbous
Feb 25
Full
Mar 4
Last Quarter
Mar 11
New
Mar 19
First Quarter

Hourly Weather History & Observations

Time (MST) Temp. Windchill Dew Point Humidity Pressure Visibility Wind Dir Wind Speed Gust Speed Precip Events Conditions
12:48 AM 32.0 °F 19.5 °F 25.0 °F 75% 29.97 in - NW 21.9 mph 27.6 mph N/A   Unknown
1:48 AM 32.0 °F 21.6 °F 26.1 °F 79% 30.01 in - NW 15.0 mph - N/A   Unknown
2:48 AM 30.9 °F 19.8 °F 25.0 °F 79% 30.04 in - WNW 16.1 mph 23.0 mph N/A   Unknown
3:48 AM 27.0 °F 16.7 °F 23.0 °F 85% 30.07 in - WNW 11.5 mph - N/A   Unknown
4:48 AM 26.1 °F 15.6 °F 21.9 °F 84% 30.10 in - WNW 11.5 mph - N/A   Unknown
5:48 AM 24.1 °F 15.2 °F 21.0 °F 88% 30.14 in - WNW 8.1 mph - N/A   Unknown
6:48 AM 21.9 °F 14.5 °F 19.0 °F 89% 30.16 in - WNW 5.8 mph - N/A   Unknown
7:48 AM 25.0 °F 19.3 °F 21.0 °F 85% 30.17 in - West 4.6 mph - N/A   Unknown
8:48 AM 30.9 °F 23.5 °F 23.0 °F 72% 30.18 in - West 8.1 mph - N/A   Unknown
9:48 AM 35.1 °F 29.3 °F 24.1 °F 64% 30.18 in - West 6.9 mph - N/A   Unknown
10:48 AM 39.0 °F 33.4 °F 21.0 °F 49% 30.16 in - WNW 8.1 mph - N/A   Unknown
11:48 AM 39.9 °F 33.9 °F 19.9 °F 45% 30.14 in - West 9.2 mph - N/A   Unknown
12:48 PM 43.0 °F 37.7 °F 17.1 °F 35% 30.11 in - WSW 9.2 mph 16.1 mph N/A   Unknown
1:48 PM 44.1 °F 37.7 °F 16.0 °F 32% 30.09 in - West 12.7 mph - N/A   Unknown
2:48 PM 44.1 °F 38.1 °F 16.0 °F 32% 30.07 in - WSW 11.5 mph - N/A   Unknown
3:48 PM 45.0 °F 38.9 °F 16.0 °F 31% 30.06 in - SW 12.7 mph 19.6 mph N/A   Unknown
4:48 PM 43.0 °F 36.0 °F 15.1 °F 32% 30.05 in - SSW 13.8 mph - N/A   Unknown
5:48 PM 36.0 °F 29.0 °F 17.1 °F 46% 30.06 in - South 9.2 mph - N/A   Unknown
6:48 PM 36.0 °F 28.0 °F 18.0 °F 48% 30.07 in - SSW 11.5 mph - N/A   Unknown
8:48 PM 32.0 °F 23.0 °F 21.0 °F 64% 30.05 in - SSW 11.5 mph - N/A   Unknown
9:48 PM 30.0 °F 20.5 °F 21.0 °F 69% 30.04 in - SSW 11.5 mph - N/A   Unknown
10:48 PM 28.0 °F 24.2 °F 19.9 °F 72% 30.02 in - WNW 3.5 mph - N/A   Unknown
11:48 PM 27.0 °F 19.5 °F 19.9 °F 75% 30.02 in - WNW 6.9 mph - N/A   Unknown